Погода в Усть-Уйском

Россия / Курганская область     54°16′05″N   63°54′18″E
темп.,
°C
ветер,
м/с
пор.,
м/с
влажн.,
%
обл.,
%
осадки,
мм/ч
давл.,
гПа
погр.,
м
16 июня, ср
ср1623:00+21сз355365 0.0 101574
02:00+19с226383 0.0 101521
05:00+18зсз227489 0.2 101621
08:00+24зсз235810 0.1 1016269
11:00+29з34405 0.1 10161136
14:00+32з47293 0.0 10143116
17:00+32зсз56265 0.0 10133245
20:00+27сз22432 0.0 101214
17 июня, чт
чт1723:00+22с36586 0.0 1013100
02:00+20ссз226073 0.0 101314
05:00+20юв2262100 0.0 101113
08:00+25ююв2453100 0.0 1010238
11:00+30ююз4633100 0.0 1008975
14:00+33юз71024100 0.0 10063302
17:00+31ю6103070 0.0 1003724
20:00+26зсз354980 0.0 100272
18 июня, пт
пт1823:00+19с4108492 0.2 1004319
02:00+17сз3795100 2.1 1004239
05:00+16ссз5996100 2.4 1004491
08:00+15с81293100 1.4 1005860
11:00+12с81581100 2.0 1009934
14:00+16с8135083 0.0 10101598
17:00+19с10133913 0.0 10112478
20:00+15ссз914434 0.0 10131122
19 июня, сб
сб1923:00+13ссз613430 0.0 1016402
02:00+10сз514545 0.0 1016282
05:00+10сз514565 0.0 1016303
08:00+15ссз8114967 0.0 1016654
11:00+18ссз8104198 0.0 10162286
14:00+17ссз8104715 0.0 10161764
17:00+16ссз695472 0.1 10151275
20:00+16с595855 0.1 1015623
20 июня, вс
вс2023:00+11сз48740 0.1 1016126
02:00+10сз37813 0.0 1016107
05:00+10сз37901 0.0 1016125
08:00+17ссз36647 0.0 1015495
11:00+19ссз464945 0.0 10141024
14:00+21сз575669 0.0 1014982
17:00+23ссз475651 0.0 10131443
20:00+21с357015 0.0 1013119